Location: Brno
(49.2000°N, 16.6330°E)
Time: 09:38:15
(UTC+02:00)

Cosmos 2227 - Visible Passes

Search period start: 26 April 2018 00:00
Search period end: 06 May 2018 00:00
Orbit: 836 x 860 km, 71.0° (Epoch: 26 April)

Date Brightness Start Highest point End Pass type
(mag) Time Alt. Az. Time Alt. Az. Time Alt. Az.
02 May 7.1 04:53:14 10° ESE 04:55:07 12° E 04:56:59 10° ENE visible
03 May 7.1 04:40:14 10° ESE 04:41:59 11° E 04:43:44 10° ENE visible
04 May 7.0 04:27:15 10° ESE 04:28:52 11° E 04:30:29 10° ENE visible
05 May 7.0 04:14:16 10° ESE 04:15:44 11° E 04:17:12 10° E visible
